Date,TemperatureHighF,TemperatureAvgF,TemperatureLowF,DewpointHighF,DewpointAvgF,DewpointLowF,HumidityHigh,HumidityAvg,HumidityLow,PressureMaxIn,PressureMinIn,WindSpeedMaxMPH,WindSpeedAvgMPH,GustSpeedMaxMPH,PrecipitationSumIn
2013-1-1,23,9,0,11,2,-2,88,76,52,30.30,30.20,4,0,11,0.00
2013-1-2,22,17,9,17,11,3,87,77,62,30.21,30.09,6,1,11,0.00
2013-1-3,26,20,9,21,16,5,91,86,80,30.27,30.09,4,0,7,0.00
2013-1-4,31,19,8,21,14,5,90,82,65,30.23,30.13,7,1,14,0.00
2013-1-5,34,25,12,32,23,10,95,90,81,30.23,29.89,5,2,13,0.00
2013-1-6,33,23,13,29,18,10,92,84,71,30.31,29.90,7,1,12,0.00
2013-1-7,34,26,12,26,20,10,90,80,67,30.30,30.06,0,0,0,0.02
2013-1-8,37,31,19,32,27,17,96,85,75,30.11,29.94,7,2,16,0.21
2013-1-9,40,33,23,32,26,20,90,77,60,30.47,29.94,8,3,21,0.08
2013-1-10,38,30,19,34,27,18,98,87,69,30.49,29.87,4,1,10,0.31
2013-1-11,45,39,34,45,39,34,100,99,95,29.86,29.58,7,2,15,0.04
2013-1-12,46,31,21,43,26,17,95,82,73,30.02,29.59,9,3,23,0.00
2013-1-13,22,16,11,19,10,6,92,75,63,30.25,29.91,5,1,10,0.00
2013-1-14,26,15,6,13,8,3,87,74,54,30.49,30.25,3,0,7,0.00
2013-1-15,29,19,12,16,13,8,88,75,55,30.45,30.10,5,1,10,0.00
2013-1-16,34,26,16,31,21,10,91,80,69,30.10,29.80,7,1,12,0.00
2013-1-17,28,20,12,20,10,6,88,66,46,30.42,30.09,5,1,10,0.00
2013-1-18,41,31,12,33,25,9,91,79,68,30.44,29.83,11,3,19,0.00
2013-1-19,45,36,14,35,28,4,87,73,48,29.99,29.66,12,4,26,0.00
2013-1-20,17,11,6,5,1,-1,73,64,52,30.34,29.99,0,0,0,0.00
2013-1-21,10,3,-2,2,-6,-9,85,67,54,30.35,30.18,0,0,0,0.00
2013-1-22,9,2,-6,-2,-6,-11,81,68,56,30.44,30.33,0,0,0,0.00
2013-1-23,18,12,6,12,5,-2,85,75,64,30.37,30.13,3,0,11,0.00